Tracking 27086 objects as of 22-Mar-2023
HD Live streaming from Space Station
objects crossing your sky now

STARLINK-2333

Track STARLINK-2333 now!
10-day predictions
STARLINK-2333 is classified as:


NORAD ID: 47877
Int'l Code: 2021-021T
Perigee: 553.2 km
Apogee: 555.6 km
Inclination: 53.1 °
Period: 95.6 minutes
Semi major axis: 6925 km
RCS: Unknown
Launch date: March 14, 2021
Source: United States (US)
Launch site: AIR FORCE EASTERN TEST RANGE (AFETR)
Your satellite tracking list
Your tracking list is empty




NASA's NSSDC Master Catalog

Two Line Element Set (TLE):
1 47877U 21021T   23081.23555895  .00000409  00000-0  46390-4 0  9994
2 47877  53.0517  95.4297 0001755  93.5554 266.5635 15.06392397112418
Source of the keplerian elements: AFSPC